Weather History for Nashville, TN

Change the Weather History Date:

Monday, November 19, 2012

  Actual Average Record
Temperature  
Mean Temperature 50 °F 48 °F  
Max Temperature 67 °F 59 °F 80 °F (1942)
Min Temperature 32 °F 38 °F 14 °F (1914)
Degree Days  
Heating Degree Days 15 17  
Month to date heating degree days 310 254  
Since 1 July heating degree days 550 469  
Cooling Degree Days 0 0  
Month to date cooling degree days 0 0  
Year to date cooling degree days 1975 1640  
Moisture  
Dew Point 36 °F    
Average Humidity 61    
Maximum Humidity 89    
Minimum Humidity 32    
Precipitation  
Precipitation T in 0.17 in 2.20 in (1988)
Month to date precipitation 0.98 2.52  
Year to date precipitation 40.71 41.22  
Snow  
Snow 0.00 in 0.00 in 0.00 in (2002)
Month to date snowfall 0.0 0.0  
Since 1 July snowfall 0.0 T  
Since 1 September snowfall 0.0 T  
Snow Depth 0.00 in    
Sea Level Pressure  
Sea Level Pressure 30.28 in    
Wind  
Wind Speed 2 mph (South)    
Max Wind Speed 8 mph    
Max Gust Speed 16 mph    
Visibility 10 miles    
Events Fog , Rain    
T = Trace of Precipitation, MM = Missing Value Source: NWS Daily Summary

Daily Weather History Graph

Daily Weather History Graph

Search for Another Location

Airport:

Trip Planner

Search our weather history database for the weather conditions in past years. The results will help you decide how hot, cold, wet, or windy it might be!

Date:

Astronomy

Nov. 19, 2012 Rise Set
Actual Time 6:28 AM CST 4:36 PM CST
Civil Twilight 6:00 AM CST 5:03 PM CST
Nautical Twilight 5:29 AM CST 5:35 PM CST
Astronomical Twilight 4:58 AM CST 6:05 PM CST
Moon 11:34 AM CST (11/19) 10:57 PM CST (11/19)
Length of Visible Light 11h 03m
Length of Day
10h 08m
Waxing Crescent, 41% of the Moon is Illuminated
Nov 19
Waxing Crescent
Nov 20
First Quarter
Nov 28
Full
Dec 6
Last Quarter
Dec 13
New

Hourly Weather History & Observations

Time (CST) Temp. Windchill Dew Point Humidity Pressure Visibility Wind Dir Wind Speed Gust Speed Precip Events Conditions
12:53 AM 36.0 °F - 32.0 °F 86% 30.34 in 10.0 mi Calm Calm - N/A   Clear
1:53 AM 35.1 °F - 32.0 °F 89% 30.33 in 10.0 mi Calm Calm - N/A   Partly Cloudy
2:53 AM 35.1 °F - 30.9 °F 85% 30.33 in 10.0 mi Calm Calm - N/A   Clear
3:53 AM 34.0 °F - 30.9 °F 89% 30.32 in 10.0 mi Calm Calm - N/A   Clear
4:02 AM 33.8 °F - 30.2 °F 87% 30.32 in 10.0 mi Calm Calm - N/A   Partly Cloudy
4:53 AM 33.1 °F 30.0 °F 30.0 °F 89% 30.34 in 10.0 mi South 3.5 mph - N/A   Scattered Clouds
5:53 AM 33.1 °F - 30.0 °F 89% 30.33 in 10.0 mi Calm Calm - N/A   Mostly Cloudy
6:53 AM 35.1 °F - 30.9 °F 85% 30.34 in 10.0 mi Calm Calm - N/A Fog Patches of Fog
7:53 AM 41.0 °F - 36.0 °F 82% 30.35 in 8.0 mi Calm Calm - N/A Fog Patches of Fog
8:53 AM 45.0 °F - 39.9 °F 82% 30.35 in 7.0 mi Calm Calm - N/A Fog Patches of Fog
9:53 AM 52.0 °F - 39.9 °F 63% 30.35 in 9.0 mi Calm Calm - N/A   Mostly Cloudy
10:53 AM 59.0 °F - 39.0 °F 48% 30.34 in 10.0 mi WNW 3.5 mph - N/A   Mostly Cloudy
11:53 AM 64.0 °F - 39.0 °F 40% 30.30 in 10.0 mi West 3.5 mph - N/A   Mostly Cloudy
12:53 PM 64.0 °F - 37.9 °F 38% 30.27 in 10.0 mi Calm Calm - N/A   Mostly Cloudy
1:53 PM 66.0 °F - 36.0 °F 33% 30.25 in 10.0 mi NNW 3.5 mph - N/A   Scattered Clouds
2:53 PM 66.0 °F - 36.0 °F 33% 30.23 in 10.0 mi Variable 4.6 mph - N/A   Scattered Clouds
3:53 PM 62.1 °F - 36.0 °F 38% 30.22 in 10.0 mi East 6.9 mph - N/A   Mostly Cloudy
4:53 PM 59.0 °F - 36.0 °F 42% 30.21 in 10.0 mi Calm Calm - N/A   Mostly Cloudy
5:53 PM 59.0 °F - 37.0 °F 44% 30.21 in 10.0 mi East 3.5 mph - N/A   Overcast
6:53 PM 55.0 °F - 37.9 °F 53% 30.23 in 10.0 mi South 3.5 mph - N/A   Overcast
7:53 PM 52.0 °F - 39.9 °F 63% 30.22 in 10.0 mi South 4.6 mph - N/A   Overcast
8:53 PM 51.8 °F - 41.0 °F 67% 30.21 in 10.0 mi South 3.5 mph - N/A   Overcast
9:53 PM 52.0 °F - 42.1 °F 69% 30.20 in 10.0 mi South 4.6 mph - N/A   Overcast
10:53 PM 52.0 °F - 42.1 °F 69% 30.20 in 10.0 mi South 4.6 mph - N/A   Overcast
11:53 PM 52.0 °F - 42.1 °F 69% 30.18 in 10.0 mi South 3.5 mph - 0.00 in Rain Light Rain